Time,TemperatureF,DewpointF,PressureIn,WindDirection,WindDirectionDegrees,WindSpeedMPH,WindSpeedGustMPH,Humidity,HourlyPrecipIn,Conditions,Clouds,dailyrainin,SoftwareType,DateUTC
2013-01-14 00:00:00,27.1,23.2,29.97,West,278,2.0,9.0,85,0.00,,,0.00,meteohub,2013-01-14 05:00:00,
2013-01-14 00:01:00,27.1,23.2,29.97,WSW,257,2.0,9.0,85,0.00,,,0.00,meteohub,2013-01-14 05:01:00,
2013-01-14 00:03:00,27.0,22.8,29.97,South,189,1.0,9.0,84,0.00,,,0.00,meteohub,2013-01-14 05:03:00,
2013-01-14 00:08:00,27.0,22.8,29.98,SW,226,2.0,9.0,84,0.00,,,0.00,meteohub,2013-01-14 05:08:00,
2013-01-14 00:13:00,26.8,22.3,29.98,NW,323,0.0,7.0,83,0.00,,,0.00,meteohub,2013-01-14 05:13:00,
2013-01-14 00:18:00,26.6,22.5,29.98,SE,126,3.0,9.0,84,0.00,,,0.00,meteohub,2013-01-14 05:18:00,
2013-01-14 00:23:00,26.4,21.9,29.98,WSW,245,2.0,9.0,83,0.00,,,0.00,meteohub,2013-01-14 05:23:00,
2013-01-14 00:28:00,26.4,22.3,29.98,SSW,197,1.0,9.0,84,0.00,,,0.00,meteohub,2013-01-14 05:28:00,
2013-01-14 00:33:00,26.4,22.3,29.99,NNE,27,0.0,6.0,84,0.00,,,0.00,meteohub,2013-01-14 05:33:00,
2013-01-14 00:38:00,26.2,22.1,29.99,SW,231,3.0,6.0,84,0.00,,,0.00,meteohub,2013-01-14 05:38:00,
2013-01-14 00:43:00,26.2,22.1,29.99,South,185,3.0,9.0,84,0.00,,,0.00,meteohub,2013-01-14 05:43:00,
2013-01-14 00:48:00,26.1,21.9,29.99,NNW,332,3.0,9.0,84,0.00,,,0.00,meteohub,2013-01-14 05:48:00,
2013-01-14 00:53:00,25.9,21.7,29.99,WSW,248,4.0,9.0,84,0.00,,,0.00,meteohub,2013-01-14 05:53:00,
2013-01-14 00:58:00,25.9,21.4,29.99,South,184,5.0,8.0,83,0.00,,,0.00,meteohub,2013-01-14 05:58:00,
2013-01-14 01:03:00,25.7,21.2,30.00,West,278,0.0,8.0,83,0.00,,,0.00,meteohub,2013-01-14 06:03:00,
2013-01-14 01:08:00,25.5,21.4,30.00,ENE,66,2.0,8.0,84,0.00,,,0.00,meteohub,2013-01-14 06:08:00,
2013-01-14 01:13:00,25.7,21.7,30.00,WSW,238,0.0,8.0,85,0.00,,,0.00,meteohub,2013-01-14 06:13:00,
2013-01-14 01:18:00,25.7,21.7,30.00,SSW,199,3.0,7.0,85,0.00,,,0.00,meteohub,2013-01-14 06:18:00,
2013-01-14 01:23:00,25.5,21.4,30.00,SSE,167,3.0,6.0,84,0.00,,,0.00,meteohub,2013-01-14 06:23:00,
2013-01-14 01:28:00,25.5,21.4,30.01,WSW,252,1.0,4.0,84,0.00,,,0.00,meteohub,2013-01-14 06:28:00,
2013-01-14 01:33:00,25.3,21.4,30.01,SSW,211,2.0,6.0,85,0.00,,,0.00,meteohub,2013-01-14 06:33:00,
2013-01-14 01:39:00,25.0,21.4,30.01,NNE,20,2.0,10.0,86,0.00,,,0.00,meteohub,2013-01-14 06:39:00,
2013-01-14 01:44:00,24.8,21.6,30.01,NW,317,3.0,13.0,87,0.00,,,0.00,meteohub,2013-01-14 06:44:00,
2013-01-14 01:49:00,24.6,21.6,30.01,West,276,1.0,13.0,88,0.00,,,0.00,meteohub,2013-01-14 06:49:00,
2013-01-14 01:54:00,24.4,21.4,30.01,SSW,199,3.0,13.0,88,0.00,,,0.00,meteohub,2013-01-14 06:54:00,
2013-01-14 01:59:00,24.4,21.7,30.02,South,172,2.0,7.0,89,0.00,,,0.00,meteohub,2013-01-14 06:59:00,
2013-01-14 02:04:00,24.4,21.4,30.02,NE,45,2.0,6.0,88,0.00,,,0.00,meteohub,2013-01-14 07:04:00,
2013-01-14 02:09:00,24.4,21.4,30.02,SSE,154,1.0,6.0,88,0.00,,,0.00,meteohub,2013-01-14 07:09:00,
2013-01-14 02:14:00,24.4,21.7,30.03,ESE,110,0.0,6.0,89,0.00,,,0.00,meteohub,2013-01-14 07:14:00,
2013-01-14 02:19:00,24.4,21.7,30.03,WSW,245,0.0,6.0,89,0.00,,,0.00,meteohub,2013-01-14 07:19:00,
2013-01-14 02:24:00,24.4,21.9,30.03,WSW,238,0.0,6.0,90,0.00,,,0.00,meteohub,2013-01-14 07:24:00,
2013-01-14 02:29:00,24.4,21.7,30.03,ENE,58,2.0,7.0,89,0.00,,,0.00,meteohub,2013-01-14 07:29:00,
2013-01-14 02:34:00,24.4,21.7,30.04,South,181,0.0,13.0,89,0.00,,,0.00,meteohub,2013-01-14 07:34:00,
2013-01-14 02:39:00,24.4,21.7,30.04,North,356,2.0,13.0,89,0.00,,,0.00,meteohub,2013-01-14 07:39:00,
2013-01-14 02:44:00,24.3,21.7,30.05,WSW,241,1.0,13.0,90,0.00,,,0.00,meteohub,2013-01-14 07:44:00,
2013-01-14 02:49:00,24.1,21.9,30.05,NW,316,4.0,8.0,91,0.00,,,0.00,meteohub,2013-01-14 07:49:00,
2013-01-14 02:54:00,24.1,21.9,30.06,SW,235,3.0,8.0,91,0.00,,,0.00,meteohub,2013-01-14 07:54:00,
2013-01-14 02:59:00,24.1,22.1,30.06,West,269,6.0,8.0,92,0.00,,,0.00,meteohub,2013-01-14 07:59:00,
2013-01-14 03:04:00,23.9,21.7,30.07,West,262,4.0,8.0,91,0.00,,,0.00,meteohub,2013-01-14 08:04:00,
2013-01-14 03:09:00,23.7,21.6,30.07,WSW,241,0.0,11.0,91,0.00,,,0.00,meteohub,2013-01-14 08:09:00,
2013-01-14 03:14:00,23.7,21.2,30.08,WSW,250,1.0,11.0,90,0.00,,,0.00,meteohub,2013-01-14 08:14:00,
2013-01-14 03:19:00,23.5,20.8,30.08,WNW,282,4.0,11.0,89,0.00,,,0.00,meteohub,2013-01-14 08:19:00,
2013-01-14 03:24:00,23.5,20.8,30.09,SW,221,4.0,9.0,89,0.00,,,0.00,meteohub,2013-01-14 08:24:00,
2013-01-14 03:29:00,23.4,20.1,30.09,SW,233,2.0,9.0,87,0.00,,,0.00,meteohub,2013-01-14 08:29:00,
2013-01-14 03:34:00,23.4,20.1,30.09,WNW,295,3.0,9.0,87,0.00,,,0.00,meteohub,2013-01-14 08:34:00,
2013-01-14 03:39:00,23.2,19.9,30.09,West,278,6.0,8.0,87,0.00,,,0.00,meteohub,2013-01-14 08:39:00,
2013-01-14 03:45:00,23.2,19.6,30.10,South,189,1.0,8.0,86,0.00,,,0.00,meteohub,2013-01-14 08:45:00,
2013-01-14 03:50:00,23.0,19.4,30.10,WSW,245,6.0,10.0,86,0.00,,,0.00,meteohub,2013-01-14 08:50:00,
2013-01-14 03:55:00,22.8,19.0,30.10,SSW,202,2.0,11.0,85,0.00,,,0.00,meteohub,2013-01-14 08:55:00,
2013-01-14 04:00:00,22.8,19.2,30.11,West,275,2.0,11.0,86,0.00,,,0.00,meteohub,2013-01-14 09:00:00,
2013-01-14 04:05:00,22.6,19.0,30.11,WNW,293,3.0,11.0,86,0.00,,,0.00,meteohub,2013-01-14 09:05:00,
2013-01-14 04:10:00,22.5,18.9,30.11,SW,220,4.0,11.0,86,0.00,,,0.00,meteohub,2013-01-14 09:10:00,
2013-01-14 04:15:00,22.5,18.9,30.12,WSW,243,3.0,11.0,86,0.00,,,0.00,meteohub,2013-01-14 09:15:00,
2013-01-14 04:20:00,22.3,18.7,30.12,WNW,294,3.0,11.0,86,0.00,,,0.00,meteohub,2013-01-14 09:20:00,
2013-01-14 04:25:00,22.3,18.7,30.12,West,269,8.0,11.0,86,0.00,,,0.00,meteohub,2013-01-14 09:25:00,
2013-01-14 04:30:00,22.1,18.9,30.12,NNE,17,5.0,11.0,87,0.00,,,0.00,meteohub,2013-01-14 09:30:00,
2013-01-14 04:35:00,21.9,18.7,30.12,NNW,327,6.0,11.0,87,0.00,,,0.00,meteohub,2013-01-14 09:35:00,
2013-01-14 04:40:00,21.9,18.7,30.12,WNW,285,3.0,11.0,87,0.00,,,0.00,meteohub,2013-01-14 09:40:00,
2013-01-14 04:45:00,21.9,18.9,30.12,NW,304,1.0,10.0,88,0.00,,,0.00,meteohub,2013-01-14 09:45:00,
2013-01-14 04:50:00,21.7,18.7,30.13,WSW,246,5.0,10.0,88,0.00,,,0.00,meteohub,2013-01-14 09:50:00,
2013-01-14 04:55:00,21.6,18.5,30.13,WSW,254,6.0,10.0,88,0.00,,,0.00,meteohub,2013-01-14 09:55:00,
2013-01-14 05:00:00,21.6,18.5,30.13,SSW,206,4.0,10.0,88,0.00,,,0.00,meteohub,2013-01-14 10:00:00,
2013-01-14 05:05:00,21.6,18.5,30.13,WSW,237,4.0,10.0,88,0.00,,,0.00,meteohub,2013-01-14 10:05:00,
2013-01-14 05:10:00,21.4,18.7,30.14,South,183,0.0,13.0,89,0.00,,,0.00,meteohub,2013-01-14 10:10:00,
2013-01-14 05:15:00,21.4,18.7,30.14,SW,231,5.0,13.0,89,0.00,,,0.00,meteohub,2013-01-14 10:15:00,
2013-01-14 05:20:00,21.4,18.3,30.14,SW,226,1.0,8.0,88,0.00,,,0.00,meteohub,2013-01-14 10:20:00,
2013-01-14 05:25:00,21.4,18.7,30.14,WNW,283,2.0,8.0,89,0.00,,,0.00,meteohub,2013-01-14 10:25:00,
2013-01-14 05:30:00,21.4,18.1,30.14,NW,304,0.0,9.0,87,0.00,,,0.00,meteohub,2013-01-14 10:30:00,
2013-01-14 05:35:00,21.4,18.3,30.15,NW,322,4.0,9.0,88,0.00,,,0.00,meteohub,2013-01-14 10:35:00,
2013-01-14 05:40:00,21.4,18.1,30.15,SW,235,4.0,9.0,87,0.00,,,0.00,meteohub,2013-01-14 10:40:00,
2013-01-14 05:45:00,21.4,17.8,30.15,WNW,285,1.0,8.0,86,0.00,,,0.00,meteohub,2013-01-14 10:45:00,
2013-01-14 05:50:00,21.4,17.8,30.15,West,266,5.0,8.0,86,0.00,,,0.00,meteohub,2013-01-14 10:50:00,
2013-01-14 05:55:00,21.4,17.8,30.16,West,279,2.0,9.0,86,0.00,,,0.00,meteohub,2013-01-14 10:55:00,
2013-01-14 06:00:00,21.4,18.1,30.16,NW,311,5.0,9.0,87,0.00,,,0.00,meteohub,2013-01-14 11:00:00,
2013-01-14 06:05:00,21.2,17.6,30.17,NW,314,1.0,7.0,86,0.00,,,0.00,meteohub,2013-01-14 11:05:00,
2013-01-14 06:10:00,21.2,17.6,30.17,SW,224,2.0,7.0,86,0.00,,,0.00,meteohub,2013-01-14 11:10:00,
2013-01-14 06:15:00,21.4,18.1,30.17,NNE,23,1.0,7.0,87,0.00,,,0.00,meteohub,2013-01-14 11:15:00,
2013-01-14 06:20:00,21.4,17.6,30.18,WNW,290,1.0,6.0,85,0.00,,,0.00,meteohub,2013-01-14 11:20:00,
2013-01-14 06:25:00,21.4,17.2,30.19,WNW,288,2.0,7.0,84,0.00,,,0.00,meteohub,2013-01-14 11:25:00,
2013-01-14 06:30:00,21.4,16.7,30.19,WSW,244,2.0,8.0,82,0.00,,,0.00,meteohub,2013-01-14 11:30:00,
2013-01-14 06:35:00,21.4,16.2,30.19,WSW,248,6.0,8.0,80,0.00,,,0.00,meteohub,2013-01-14 11:35:00,
2013-01-14 06:40:00,21.4,16.5,30.19,WSW,240,3.0,11.0,81,0.00,,,0.00,meteohub,2013-01-14 11:40:00,
2013-01-14 06:45:00,21.4,16.5,30.20,NNE,20,0.0,11.0,81,0.00,,,0.00,meteohub,2013-01-14 11:45:00,
2013-01-14 06:50:00,21.4,16.5,30.20,NNW,328,3.0,6.0,81,0.00,,,0.00,meteohub,2013-01-14 11:50:00,
2013-01-14 06:55:00,21.2,16.0,30.21,ESE,119,3.0,6.0,80,0.00,,,0.00,meteohub,2013-01-14 11:55:00,
2013-01-14 07:00:00,21.2,15.8,30.21,SW,221,4.0,10.0,79,0.00,,,0.00,meteohub,2013-01-14 12:00:00,
2013-01-14 07:05:00,21.2,16.0,30.22,SW,223,1.0,10.0,80,0.00,,,0.00,meteohub,2013-01-14 12:05:00,
2013-01-14 07:11:00,21.2,16.3,30.22,WSW,252,1.0,10.0,81,0.00,,,0.00,meteohub,2013-01-14 12:11:00,
2013-01-14 07:16:00,21.0,16.3,30.22,SSW,203,1.0,6.0,82,0.00,,,0.00,meteohub,2013-01-14 12:16:00,
2013-01-14 07:21:00,21.0,16.3,30.23,NW,318,0.0,5.0,82,0.00,,,0.00,meteohub,2013-01-14 12:21:00,
2013-01-14 07:26:00,20.8,16.2,30.23,WSW,237,1.0,5.0,82,0.00,,,0.00,meteohub,2013-01-14 12:26:00,
2013-01-14 07:31:00,20.8,16.5,30.23,WNW,285,1.0,5.0,83,0.00,,,0.00,meteohub,2013-01-14 12:31:00,
2013-01-14 07:36:00,20.8,16.7,30.23,WSW,246,1.0,5.0,84,0.00,,,0.00,meteohub,2013-01-14 12:36:00,
2013-01-14 07:41:00,20.8,17.1,30.23,NW,313,0.0,5.0,85,0.00,,,0.00,meteohub,2013-01-14 12:41:00,
2013-01-14 07:46:00,20.8,17.1,30.24,NNW,346,2.0,5.0,85,0.00,,,0.00,meteohub,2013-01-14 12:46:00,
2013-01-14 07:51:00,20.8,17.2,30.25,West,264,1.0,5.0,86,0.00,,,0.00,meteohub,2013-01-14 12:51:00,
2013-01-14 07:56:00,21.0,17.4,30.25,NNW,338,0.0,4.0,86,0.00,,,0.00,meteohub,2013-01-14 12:56:00,
2013-01-14 08:01:00,21.0,17.2,30.26,NW,315,2.0,3.0,85,0.00,,,0.00,meteohub,2013-01-14 13:01:00,
2013-01-14 08:06:00,21.0,17.2,30.26,WSW,241,0.0,4.0,85,0.00,,,0.00,meteohub,2013-01-14 13:06:00,
2013-01-14 08:11:00,21.4,17.6,30.27,SSW,200,0.0,4.0,85,0.00,,,0.00,meteohub,2013-01-14 13:11:00,
2013-01-14 08:16:00,21.2,17.1,30.27,NW,317,0.0,3.0,84,0.00,,,0.00,meteohub,2013-01-14 13:16:00,
2013-01-14 08:21:00,21.0,17.2,30.27,South,171,1.0,2.0,85,0.00,,,0.00,meteohub,2013-01-14 13:21:00,
2013-01-14 08:26:00,21.0,17.2,30.28,ENE,67,0.0,2.0,85,0.00,,,0.00,meteohub,2013-01-14 13:26:00,
2013-01-14 08:31:00,21.2,17.6,30.28,East,81,0.0,2.0,86,0.00,,,0.00,meteohub,2013-01-14 13:31:00,
2013-01-14 08:36:00,21.0,17.2,30.29,ESE,109,1.0,4.0,85,0.00,,,0.00,meteohub,2013-01-14 13:36:00,
2013-01-14 08:41:00,21.2,17.4,30.29,East,98,0.0,5.0,85,0.00,,,0.00,meteohub,2013-01-14 13:41:00,
2013-01-14 08:46:00,21.2,17.4,30.30,WSW,248,3.0,5.0,85,0.00,,,0.00,meteohub,2013-01-14 13:46:00,
2013-01-14 08:51:00,21.2,17.1,30.30,NE,50,0.0,4.0,84,0.00,,,0.00,meteohub,2013-01-14 13:51:00,
2013-01-14 08:56:00,21.2,16.9,30.30,WSW,258,2.0,6.0,83,0.00,,,0.00,meteohub,2013-01-14 13:56:00,
2013-01-14 09:01:00,21.4,17.1,30.31,West,281,2.0,6.0,83,0.00,,,0.00,meteohub,2013-01-14 14:01:00,
2013-01-14 09:06:00,21.4,16.7,30.31,SW,218,1.0,8.0,82,0.00,,,0.00,meteohub,2013-01-14 14:06:00,
2013-01-14 09:11:00,21.6,16.7,30.31,SSW,203,3.0,8.0,81,0.00,,,0.00,meteohub,2013-01-14 14:11:00,
2013-01-14 09:16:00,21.6,16.7,30.31,North,10,0.0,8.0,81,0.00,,,0.00,meteohub,2013-01-14 14:16:00,
2013-01-14 09:21:00,21.6,16.7,30.31,NNE,12,0.0,7.0,81,0.00,,,0.00,meteohub,2013-01-14 14:21:00,
2013-01-14 09:26:00,21.7,16.9,30.32,NNE,17,3.0,6.0,81,0.00,,,0.00,meteohub,2013-01-14 14:26:00,
2013-01-14 09:31:00,21.7,17.1,30.32,WSW,243,0.0,6.0,82,0.00,,,0.00,meteohub,2013-01-14 14:31:00,
2013-01-14 09:36:00,21.7,17.4,30.32,NE,53,1.0,6.0,83,0.00,,,0.00,meteohub,2013-01-14 14:36:00,
2013-01-14 09:41:00,21.7,17.4,30.33,WNW,288,2.0,11.0,83,0.00,,,0.00,meteohub,2013-01-14 14:41:00,
2013-01-14 09:46:00,21.7,17.6,30.32,NW,309,3.0,11.0,84,0.00,,,0.00,meteohub,2013-01-14 14:46:00,
2013-01-14 09:51:00,21.6,18.0,30.33,West,262,1.0,11.0,86,0.00,,,0.00,meteohub,2013-01-14 14:51:00,
2013-01-14 09:56:00,21.6,18.0,30.33,SW,230,0.0,7.0,86,0.00,,,0.00,meteohub,2013-01-14 14:56:00,
2013-01-14 10:01:00,21.6,18.0,30.33,West,275,3.0,7.0,86,0.00,,,0.00,meteohub,2013-01-14 15:01:00,
2013-01-14 10:06:00,21.7,18.5,30.33,North,7,1.0,5.0,87,0.00,,,0.00,meteohub,2013-01-14 15:06:00,
2013-01-14 10:11:00,21.7,18.5,30.33,SE,141,0.0,5.0,87,0.00,,,0.00,meteohub,2013-01-14 15:11:00,
2013-01-14 10:16:00,21.7,17.6,30.34,North,9,2.0,7.0,84,0.00,,,0.00,meteohub,2013-01-14 15:16:00,
2013-01-14 10:21:00,21.7,17.1,30.34,WNW,283,2.0,10.0,82,0.00,,,0.00,meteohub,2013-01-14 15:21:00,
2013-01-14 10:26:00,21.7,17.1,30.34,SW,220,0.0,10.0,82,0.00,,,0.00,meteohub,2013-01-14 15:26:00,
2013-01-14 10:31:00,21.7,17.1,30.34,WSW,257,7.0,9.0,82,0.00,,,0.00,meteohub,2013-01-14 15:31:00,
2013-01-14 10:36:00,21.7,16.9,30.35,NW,316,1.0,10.0,81,0.00,,,0.00,meteohub,2013-01-14 15:36:00,
2013-01-14 10:41:00,21.9,17.2,30.35,West,261,3.0,10.0,82,0.00,,,0.00,meteohub,2013-01-14 15:41:00,
2013-01-14 10:46:00,21.9,16.7,30.35,SSW,209,1.0,10.0,80,0.00,,,0.00,meteohub,2013-01-14 15:46:00,
2013-01-14 10:51:00,21.9,16.7,30.35,WSW,250,2.0,6.0,80,0.00,,,0.00,meteohub,2013-01-14 15:51:00,
2013-01-14 10:56:00,21.9,16.7,30.35,WSW,247,4.0,10.0,80,0.00,,,0.00,meteohub,2013-01-14 15:56:00,
2013-01-14 11:01:00,22.1,17.2,30.35,WNW,290,1.0,10.0,81,0.00,,,0.00,meteohub,2013-01-14 16:01:00,
2013-01-14 11:06:00,22.3,17.4,30.35,WSW,252,2.0,10.0,81,0.00,,,0.00,meteohub,2013-01-14 16:06:00,
2013-01-14 11:11:00,22.1,17.4,30.35,SSW,213,2.0,9.0,82,0.00,,,0.00,meteohub,2013-01-14 16:11:00,
2013-01-14 11:16:00,22.1,17.2,30.35,ENE,61,0.0,9.0,81,0.00,,,0.00,meteohub,2013-01-14 16:16:00,
2013-01-14 11:21:00,22.1,16.9,30.35,SW,219,7.0,7.0,80,0.00,,,0.00,meteohub,2013-01-14 16:21:00,
2013-01-14 11:26:00,22.3,16.5,30.35,NNW,347,3.0,10.0,78,0.00,,,0.00,meteohub,2013-01-14 16:26:00,
2013-01-14 11:32:00,22.3,16.2,30.35,WNW,299,3.0,10.0,77,0.00,,,0.00,meteohub,2013-01-14 16:32:00,
2013-01-14 11:37:00,22.3,15.8,30.35,NNW,337,2.0,8.0,76,0.00,,,0.00,meteohub,2013-01-14 16:37:00,
2013-01-14 11:42:00,22.5,16.0,30.35,WSW,250,3.0,10.0,76,0.00,,,0.00,meteohub,2013-01-14 16:42:00,
2013-01-14 11:47:00,22.5,16.7,30.35,WSW,258,1.0,10.0,78,0.00,,,0.00,meteohub,2013-01-14 16:47:00,
2013-01-14 11:52:00,22.5,16.7,30.35,West,259,3.0,10.0,78,0.00,,,0.00,meteohub,2013-01-14 16:52:00,
2013-01-14 11:57:00,22.5,17.2,30.35,SE,129,0.0,10.0,80,0.00,,,0.00,meteohub,2013-01-14 16:57:00,
2013-01-14 12:02:00,22.5,17.2,30.35,South,182,0.0,7.0,80,0.00,,,0.00,meteohub,2013-01-14 17:02:00,
2013-01-14 12:07:00,22.5,16.9,30.35,South,178,0.0,10.0,79,0.00,,,0.00,meteohub,2013-01-14 17:07:00,
2013-01-14 12:12:00,22.5,16.9,30.35,WSW,258,2.0,10.0,79,0.00,,,0.00,meteohub,2013-01-14 17:12:00,
2013-01-14 12:17:00,22.6,17.1,30.34,East,96,1.0,10.0,79,0.00,,,0.00,meteohub,2013-01-14 17:17:00,
2013-01-14 12:22:00,22.8,17.2,30.34,WNW,294,1.0,8.0,79,0.00,,,0.00,meteohub,2013-01-14 17:22:00,
2013-01-14 12:27:00,22.6,16.5,30.33,SW,223,2.0,8.0,77,0.00,,,0.00,meteohub,2013-01-14 17:27:00,
2013-01-14 12:32:00,22.6,16.9,30.33,NW,313,1.0,8.0,78,0.00,,,0.00,meteohub,2013-01-14 17:32:00,
2013-01-14 12:37:00,22.8,16.7,30.33,WSW,242,3.0,8.0,77,0.00,,,0.00,meteohub,2013-01-14 17:37:00,
2013-01-14 12:42:00,22.8,16.7,30.33,North,9,0.0,8.0,77,0.00,,,0.00,meteohub,2013-01-14 17:42:00,
2013-01-14 12:47:00,22.8,16.7,30.33,West,264,4.0,7.0,77,0.00,,,0.00,meteohub,2013-01-14 17:47:00,
2013-01-14 12:52:00,22.6,17.1,30.33,NE,53,1.0,8.0,79,0.00,,,0.00,meteohub,2013-01-14 17:52:00,
2013-01-14 12:57:00,22.8,17.2,30.32,NE,41,1.0,8.0,79,0.00,,,0.00,meteohub,2013-01-14 17:57:00,
2013-01-14 13:02:00,22.8,17.2,30.32,NW,317,0.0,8.0,79,0.00,,,0.00,meteohub,2013-01-14 18:02:00,
2013-01-14 13:07:00,23.2,17.6,30.32,WSW,255,2.0,3.0,79,0.00,,,0.00,meteohub,2013-01-14 18:07:00,
2013-01-14 13:12:00,23.2,17.6,30.32,ESE,107,6.0,6.0,79,0.00,,,0.00,meteohub,2013-01-14 18:12:00,
2013-01-14 13:17:00,23.2,17.4,30.32,NW,313,1.0,12.0,78,0.00,,,0.00,meteohub,2013-01-14 18:17:00,
2013-01-14 13:22:00,23.2,17.1,30.33,WSW,246,1.0,12.0,77,0.00,,,0.00,meteohub,2013-01-14 18:22:00,
2013-01-14 13:27:00,23.5,17.8,30.32,SSE,165,1.0,12.0,78,0.00,,,0.00,meteohub,2013-01-14 18:27:00,
2013-01-14 13:32:00,23.5,17.4,30.33,NE,39,1.0,4.0,77,0.00,,,0.00,meteohub,2013-01-14 18:32:00,
2013-01-14 13:37:00,23.7,18.0,30.33,WSW,248,4.0,4.0,78,0.00,,,0.00,meteohub,2013-01-14 18:37:00,
2013-01-14 13:42:00,23.7,17.6,30.33,SW,218,6.0,6.0,77,0.00,,,0.00,meteohub,2013-01-14 18:42:00,
2013-01-14 13:47:00,23.5,17.4,30.33,SSW,213,1.0,6.0,77,0.00,,,0.00,meteohub,2013-01-14 18:47:00,
2013-01-14 13:52:00,23.5,18.0,30.33,SSW,193,1.0,6.0,79,0.00,,,0.00,meteohub,2013-01-14 18:52:00,
2013-01-14 13:57:00,23.4,17.2,30.33,SW,234,3.0,6.0,77,0.00,,,0.00,meteohub,2013-01-14 18:57:00,
2013-01-14 14:02:00,23.4,17.6,30.33,WSW,246,2.0,6.0,78,0.00,,,0.00,meteohub,2013-01-14 19:02:00,
2013-01-14 14:07:00,23.7,18.0,30.33,SE,130,3.0,8.0,78,0.00,,,0.00,meteohub,2013-01-14 19:07:00,
2013-01-14 14:12:00,23.7,17.6,30.34,SW,233,6.0,8.0,77,0.00,,,0.00,meteohub,2013-01-14 19:12:00,
2013-01-14 14:17:00,23.7,18.0,30.33,East,96,1.0,9.0,78,0.00,,,0.00,meteohub,2013-01-14 19:17:00,
2013-01-14 14:22:00,23.9,17.4,30.34,SW,224,2.0,9.0,76,0.00,,,0.00,meteohub,2013-01-14 19:22:00,
2013-01-14 14:27:00,24.1,17.2,30.34,East,91,1.0,9.0,75,0.00,,,0.00,meteohub,2013-01-14 19:27:00,
2013-01-14 14:32:00,24.3,17.4,30.34,SW,214,2.0,9.0,75,0.00,,,0.00,meteohub,2013-01-14 19:32:00,
2013-01-14 14:37:00,24.1,17.1,30.34,WSW,241,2.0,9.0,74,0.00,,,0.00,meteohub,2013-01-14 19:37:00,
2013-01-14 14:42:00,24.3,17.4,30.34,SSW,195,2.0,7.0,75,0.00,,,0.00,meteohub,2013-01-14 19:42:00,
2013-01-14 14:47:00,24.4,17.4,30.34,WSW,245,1.0,8.0,74,0.00,,,0.00,meteohub,2013-01-14 19:47:00,
2013-01-14 14:52:00,25.0,18.0,30.34,NW,314,1.0,8.0,74,0.00,,,0.00,meteohub,2013-01-14 19:52:00,
2013-01-14 14:57:00,24.8,17.8,30.34,WSW,251,1.0,8.0,74,0.00,,,0.00,meteohub,2013-01-14 19:57:00,
2013-01-14 15:02:00,24.8,17.1,30.34,WSW,252,3.0,6.0,72,0.00,,,0.00,meteohub,2013-01-14 20:02:00,
2013-01-14 15:07:00,25.0,16.9,30.34,North,0,2.0,6.0,71,0.00,,,0.00,meteohub,2013-01-14 20:07:00,
2013-01-14 15:12:00,25.2,17.1,30.34,SSW,200,2.0,5.0,71,0.00,,,0.00,meteohub,2013-01-14 20:12:00,
2013-01-14 15:17:00,25.0,16.9,30.34,West,275,4.0,9.0,71,0.00,,,0.00,meteohub,2013-01-14 20:17:00,
2013-01-14 15:22:00,25.2,16.7,30.34,West,259,4.0,9.0,70,0.00,,,0.00,meteohub,2013-01-14 20:22:00,
2013-01-14 15:27:00,25.0,16.5,30.34,WNW,282,7.0,9.0,70,0.00,,,0.00,meteohub,2013-01-14 20:27:00,
2013-01-14 15:32:00,25.0,16.0,30.34,WNW,285,5.0,9.0,68,0.00,,,0.00,meteohub,2013-01-14 20:32:00,
2013-01-14 15:37:00,25.0,16.5,30.34,WNW,295,2.0,9.0,70,0.00,,,0.00,meteohub,2013-01-14 20:37:00,
2013-01-14 15:42:00,25.0,16.0,30.34,WSW,237,3.0,9.0,68,0.00,,,0.00,meteohub,2013-01-14 20:42:00,
2013-01-14 15:47:00,24.6,15.3,30.34,WNW,283,1.0,9.0,67,0.00,,,0.00,meteohub,2013-01-14 20:47:00,
2013-01-14 15:52:00,24.6,16.0,30.34,WSW,248,3.0,6.0,69,0.00,,,0.00,meteohub,2013-01-14 20:52:00,
2013-01-14 15:57:00,24.6,15.6,30.35,WNW,289,4.0,6.0,68,0.00,,,0.00,meteohub,2013-01-14 20:57:00,
2013-01-14 16:02:00,24.4,15.4,30.35,SW,218,2.0,6.0,68,0.00,,,0.00,meteohub,2013-01-14 21:02:00,
2013-01-14 16:07:00,24.4,15.8,30.35,South,175,2.0,4.0,69,0.00,,,0.00,meteohub,2013-01-14 21:07:00,
2013-01-14 16:12:00,24.4,15.4,30.35,WNW,293,4.0,8.0,68,0.00,,,0.00,meteohub,2013-01-14 21:12:00,
2013-01-14 16:17:00,24.3,14.9,30.35,NW,310,2.0,9.0,67,0.00,,,0.00,meteohub,2013-01-14 21:17:00,
2013-01-14 16:22:00,24.1,14.7,30.36,SW,216,2.0,9.0,67,0.00,,,0.00,meteohub,2013-01-14 21:22:00,
2013-01-14 16:27:00,24.1,15.1,30.36,South,175,2.0,9.0,68,0.00,,,0.00,meteohub,2013-01-14 21:27:00,
2013-01-14 16:32:00,23.9,15.3,30.36,NNW,340,0.0,5.0,69,0.00,,,0.00,meteohub,2013-01-14 21:32:00,
2013-01-14 16:37:00,23.7,15.4,30.36,NNW,333,1.0,5.0,70,0.00,,,0.00,meteohub,2013-01-14 21:37:00,
2013-01-14 16:42:00,23.7,15.4,30.37,WNW,283,1.0,5.0,70,0.00,,,0.00,meteohub,2013-01-14 21:42:00,
2013-01-14 16:47:00,23.5,15.4,30.36,South,180,0.0,3.0,71,0.00,,,0.00,meteohub,2013-01-14 21:47:00,
2013-01-14 16:52:00,23.5,15.4,30.36,South,169,0.0,3.0,71,0.00,,,0.00,meteohub,2013-01-14 21:52:00,
2013-01-14 16:57:00,23.4,15.4,30.37,West,272,0.0,3.0,71,0.00,,,0.00,meteohub,2013-01-14 21:57:00,
2013-01-14 17:02:00,23.2,15.4,30.37,SSW,199,0.0,3.0,72,0.00,,,0.00,meteohub,2013-01-14 22:02:00,
2013-01-14 17:07:00,23.0,15.3,30.36,ENE,63,1.0,3.0,72,0.00,,,0.00,meteohub,2013-01-14 22:07:00,
2013-01-14 17:12:00,22.8,15.4,30.37,SSE,147,0.0,3.0,73,0.00,,,0.00,meteohub,2013-01-14 22:12:00,
2013-01-14 17:17:00,22.6,15.6,30.36,NE,34,0.0,2.0,74,0.00,,,0.00,meteohub,2013-01-14 22:17:00,
2013-01-14 17:22:00,22.5,15.8,30.36,NE,56,0.0,2.0,75,0.00,,,0.00,meteohub,2013-01-14 22:22:00,
2013-01-14 17:27:00,22.1,16.0,30.36,SSE,157,0.0,1.0,77,0.00,,,0.00,meteohub,2013-01-14 22:27:00,
2013-01-14 17:32:00,21.7,15.3,30.37,SE,136,1.0,1.0,76,0.00,,,0.00,meteohub,2013-01-14 22:32:00,
2013-01-14 17:37:00,21.6,15.8,30.37,South,179,2.0,2.0,78,0.00,,,0.00,meteohub,2013-01-14 22:37:00,
2013-01-14 17:42:00,21.4,16.2,30.37,SE,144,0.0,2.0,80,0.00,,,0.00,meteohub,2013-01-14 22:42:00,
2013-01-14 17:47:00,20.8,16.0,30.37,SE,145,0.0,2.0,81,0.00,,,0.00,meteohub,2013-01-14 22:47:00,
2013-01-14 17:52:00,20.5,16.2,30.37,SSE,149,0.0,2.0,83,0.00,,,0.00,meteohub,2013-01-14 22:52:00,
2013-01-14 17:57:00,20.1,15.8,30.37,South,169,0.0,2.0,83,0.00,,,0.00,meteohub,2013-01-14 22:57:00,
2013-01-14 18:02:00,19.9,15.6,30.36,SE,125,3.0,3.0,83,0.00,,,0.00,meteohub,2013-01-14 23:02:00,
2013-01-14 18:07:00,19.8,15.4,30.37,ESE,119,0.0,3.0,83,0.00,,,0.00,meteohub,2013-01-14 23:07:00,
2013-01-14 18:12:00,19.6,15.3,30.36,SSE,160,2.0,3.0,83,0.00,,,0.00,meteohub,2013-01-14 23:12:00,
2013-01-14 18:17:00,19.2,15.3,30.36,SSE,158,0.0,3.0,84,0.00,,,0.00,meteohub,2013-01-14 23:17:00,
2013-01-14 18:22:00,19.4,15.4,30.36,SSE,162,2.0,5.0,84,0.00,,,0.00,meteohub,2013-01-14 23:22:00,
2013-01-14 18:27:00,19.4,15.1,30.36,SE,144,1.0,5.0,83,0.00,,,0.00,meteohub,2013-01-14 23:27:00,
2013-01-14 18:32:00,19.4,15.1,30.36,South,181,1.0,5.0,83,0.00,,,0.00,meteohub,2013-01-14 23:32:00,
2013-01-14 18:37:00,19.4,15.1,30.36,South,183,2.0,5.0,83,0.00,,,0.00,meteohub,2013-01-14 23:37:00,
2013-01-14 18:42:00,19.2,14.9,30.36,West,276,1.0,5.0,83,0.00,,,0.00,meteohub,2013-01-14 23:42:00,
2013-01-14 18:47:00,19.2,15.3,30.36,SSW,201,2.0,5.0,84,0.00,,,0.00,meteohub,2013-01-14 23:47:00,
2013-01-14 18:52:00,19.2,15.3,30.36,SW,221,3.0,5.0,84,0.00,,,0.00,meteohub,2013-01-14 23:52:00,
2013-01-14 18:57:00,19.2,15.3,30.36,ESE,122,2.0,5.0,84,0.00,,,0.00,meteohub,2013-01-14 23:57:00,
2013-01-14 19:02:00,19.0,15.1,30.36,SE,137,2.0,5.0,84,0.00,,,0.00,meteohub,2013-01-15 00:02:00,
2013-01-14 19:07:00,19.0,15.3,30.36,South,171,5.0,5.0,85,0.00,,,0.00,meteohub,2013-01-15 00:07:00,
2013-01-14 19:12:00,19.0,15.3,30.36,ESE,119,1.0,5.0,85,0.00,,,0.00,meteohub,2013-01-15 00:12:00,
2013-01-14 19:17:00,19.0,15.3,30.36,ESE,103,2.0,6.0,85,0.00,,,0.00,meteohub,2013-01-15 00:17:00,
2013-01-14 19:22:00,19.0,15.6,30.35,NE,51,6.0,6.0,86,0.00,,,0.00,meteohub,2013-01-15 00:22:00,
2013-01-14 19:27:00,19.0,15.6,30.35,SSE,167,1.0,6.0,86,0.00,,,0.00,meteohub,2013-01-15 00:27:00,
2013-01-14 19:32:00,19.0,15.6,30.35,ESE,103,2.0,6.0,86,0.00,,,0.00,meteohub,2013-01-15 00:32:00,
2013-01-14 19:37:00,19.0,15.6,30.35,SE,136,1.0,6.0,86,0.00,,,0.00,meteohub,2013-01-15 00:37:00,
2013-01-14 19:42:00,19.0,15.6,30.35,SSE,152,4.0,5.0,86,0.00,,,0.00,meteohub,2013-01-15 00:42:00,
2013-01-14 19:47:00,19.0,15.6,30.35,SE,145,3.0,5.0,86,0.00,,,0.00,meteohub,2013-01-15 00:47:00,
2013-01-14 19:52:00,18.9,15.4,30.35,ESE,122,2.0,5.0,86,0.00,,,0.00,meteohub,2013-01-15 00:52:00,
2013-01-14 19:57:00,19.0,15.8,30.35,SW,224,1.0,6.0,87,0.00,,,0.00,meteohub,2013-01-15 00:57:00,
2013-01-14 20:02:00,18.9,15.4,30.35,ESE,115,3.0,6.0,86,0.00,,,0.00,meteohub,2013-01-15 01:02:00,
2013-01-14 20:07:00,18.9,15.1,30.35,East,91,2.0,6.0,85,0.00,,,0.00,meteohub,2013-01-15 01:07:00,
2013-01-14 20:12:00,18.9,15.1,30.36,East,90,1.0,5.0,85,0.00,,,0.00,meteohub,2013-01-15 01:12:00,
2013-01-14 20:17:00,18.9,15.4,30.35,SW,224,2.0,5.0,86,0.00,,,0.00,meteohub,2013-01-15 01:17:00,
2013-01-14 20:22:00,18.9,15.4,30.35,WSW,245,2.0,5.0,86,0.00,,,0.00,meteohub,2013-01-15 01:22:00,
2013-01-14 20:27:00,18.9,15.4,30.35,SW,219,1.0,6.0,86,0.00,,,0.00,meteohub,2013-01-15 01:27:00,
2013-01-14 20:32:00,19.0,15.6,30.35,SSE,160,2.0,6.0,86,0.00,,,0.00,meteohub,2013-01-15 01:32:00,
2013-01-14 20:37:00,19.2,15.8,30.34,ESE,122,2.0,6.0,86,0.00,,,0.00,meteohub,2013-01-15 01:37:00,
2013-01-14 20:42:00,19.4,16.0,30.34,SW,216,1.0,6.0,86,0.00,,,0.00,meteohub,2013-01-15 01:42:00,
2013-01-14 20:47:00,19.6,16.2,30.34,West,265,2.0,6.0,86,0.00,,,0.00,meteohub,2013-01-15 01:47:00,
2013-01-14 20:52:00,19.6,16.2,30.34,ENE,58,0.0,6.0,86,0.00,,,0.00,meteohub,2013-01-15 01:52:00,
2013-01-14 20:57:00,19.8,16.0,30.34,WSW,254,1.0,5.0,85,0.00,,,0.00,meteohub,2013-01-15 01:57:00,
2013-01-14 21:02:00,19.8,16.0,30.34,South,186,2.0,5.0,85,0.00,,,0.00,meteohub,2013-01-15 02:02:00,
2013-01-14 21:07:00,19.9,16.2,30.34,SSE,148,3.0,4.0,85,0.00,,,0.00,meteohub,2013-01-15 02:07:00,
2013-01-14 21:12:00,20.1,16.3,30.34,East,89,1.0,5.0,85,0.00,,,0.00,meteohub,2013-01-15 02:12:00,
2013-01-14 21:17:00,20.1,16.0,30.35,SSW,200,1.0,5.0,84,0.00,,,0.00,meteohub,2013-01-15 02:17:00,
2013-01-14 21:22:00,20.1,16.0,30.34,SE,127,1.0,5.0,84,0.00,,,0.00,meteohub,2013-01-15 02:22:00,
2013-01-14 21:27:00,20.1,15.8,30.34,NE,43,0.0,5.0,83,0.00,,,0.00,meteohub,2013-01-15 02:27:00,
2013-01-14 21:32:00,20.3,16.2,30.34,ESE,122,3.0,6.0,84,0.00,,,0.00,meteohub,2013-01-15 02:32:00,
2013-01-14 21:37:00,20.5,16.3,30.34,NE,50,2.0,6.0,84,0.00,,,0.00,meteohub,2013-01-15 02:37:00,
2013-01-14 21:42:00,20.7,16.5,30.34,SW,220,1.0,5.0,84,0.00,,,0.00,meteohub,2013-01-15 02:42:00,
2013-01-14 21:47:00,20.7,16.3,30.33,WSW,248,0.0,5.0,83,0.00,,,0.00,meteohub,2013-01-15 02:47:00,
2013-01-14 21:52:00,20.7,16.3,30.34,South,169,1.0,5.0,83,0.00,,,0.00,meteohub,2013-01-15 02:52:00,
2013-01-14 21:58:00,20.7,16.5,30.34,SSE,148,1.0,5.0,84,0.00,,,0.00,meteohub,2013-01-15 02:58:00,
2013-01-14 22:03:00,20.8,16.7,30.33,ENE,75,1.0,5.0,84,0.00,,,0.00,meteohub,2013-01-15 03:03:00,
2013-01-14 22:08:00,20.8,16.7,30.34,East,97,1.0,5.0,84,0.00,,,0.00,meteohub,2013-01-15 03:08:00,
2013-01-14 22:13:00,20.8,16.7,30.33,WSW,258,1.0,5.0,84,0.00,,,0.00,meteohub,2013-01-15 03:13:00,
2013-01-14 22:18:00,20.8,17.1,30.33,SW,226,1.0,5.0,85,0.00,,,0.00,meteohub,2013-01-15 03:18:00,
2013-01-14 22:23:00,20.8,16.7,30.33,NE,34,2.0,5.0,84,0.00,,,0.00,meteohub,2013-01-15 03:23:00,
2013-01-14 22:28:00,21.0,16.9,30.33,SW,216,1.0,5.0,84,0.00,,,0.00,meteohub,2013-01-15 03:28:00,
2013-01-14 22:33:00,21.0,16.9,30.32,East,89,2.0,5.0,84,0.00,,,0.00,meteohub,2013-01-15 03:33:00,
2013-01-14 22:38:00,21.0,17.2,30.32,South,169,1.0,6.0,85,0.00,,,0.00,meteohub,2013-01-15 03:38:00,
2013-01-14 22:43:00,21.2,17.1,30.32,East,83,2.0,7.0,84,0.00,,,0.00,meteohub,2013-01-15 03:43:00,
2013-01-14 22:48:00,21.2,17.4,30.32,ESE,115,2.0,7.0,85,0.00,,,0.00,meteohub,2013-01-15 03:48:00,
2013-01-14 22:53:00,21.2,17.4,30.32,SE,142,3.0,5.0,85,0.00,,,0.00,meteohub,2013-01-15 03:53:00,
2013-01-14 22:58:00,21.4,17.6,30.32,SSW,213,1.0,5.0,85,0.00,,,0.00,meteohub,2013-01-15 03:58:00,
2013-01-14 23:03:00,21.6,17.4,30.32,NW,320,2.0,5.0,84,0.00,,,0.00,meteohub,2013-01-15 04:03:00,
2013-01-14 23:08:00,21.6,17.4,30.32,ENE,66,0.0,9.0,84,0.00,,,0.00,meteohub,2013-01-15 04:08:00,
2013-01-14 23:13:00,21.7,18.0,30.33,SSE,162,3.0,9.0,85,0.00,,,0.00,meteohub,2013-01-15 04:13:00,
2013-01-14 23:18:00,21.9,18.1,30.33,SSE,152,1.0,9.0,85,0.00,,,0.00,meteohub,2013-01-15 04:18:00,
2013-01-14 23:23:00,21.9,17.8,30.33,WSW,247,1.0,6.0,84,0.00,,,0.00,meteohub,2013-01-15 04:23:00,
2013-01-14 23:28:00,22.1,18.0,30.33,SSW,195,0.0,6.0,84,0.00,,,0.00,meteohub,2013-01-15 04:28:00,
2013-01-14 23:33:00,22.3,18.1,30.33,ESE,108,1.0,6.0,84,0.00,,,0.00,meteohub,2013-01-15 04:33:00,
2013-01-14 23:38:00,22.3,18.1,30.33,WNW,283,0.0,6.0,84,0.00,,,0.00,meteohub,2013-01-15 04:38:00,
2013-01-14 23:43:00,22.3,18.1,30.33,SSE,161,1.0,4.0,84,0.00,,,0.00,meteohub,2013-01-15 04:43:00,
2013-01-14 23:48:00,22.3,18.1,30.34,ESE,108,5.0,5.0,84,0.00,,,0.00,meteohub,2013-01-15 04:48:00,
2013-01-14 23:53:00,22.3,18.1,30.34,East,82,1.0,7.0,84,0.00,,,0.00,meteohub,2013-01-15 04:53:00,
2013-01-14 23:58:00,22.3,18.1,30.34,East,89,1.0,7.0,84,0.00,,,0.00,meteohub,2013-01-15 04:58:00,